User: anonymous   Login
Location: State Camp
(41.2367°N, 77.7828°W)
Time: 03:54:11
(UTC-05:00)
Language:

Cosmos 1674 Rocket - Orbit

View from above orbital plane
View from above orbital plane
View from above satellite
View from above satellite

Ground track
Ground track

The orbit data is extracted from the following two-line orbital elements,

1 15945U 85069B   17057.56611393  .00000116  00000-0  11079-4 0  9996
2 15945  82.5255 236.6042 0018316 288.7167  71.2061 14.83909794704624
Epoch (UTC): 26 February 2017 13:35:12
Eccentricity: 0.0018316
inclination: 82.5255°
perigee height: 604 km
apogee height: 630 km
right ascension of ascending node: 236.6042°
argument of perigee: 288.7167°
revolutions per day: 14.83909794
mean anomaly at epoch: 71.2061°
orbit number at epoch: 70462

The dashed part of the orbit path shows where the satellite is in the earth's shadow,  

DLR